Regional Weather Roundup
Issued by NWS Cleveland, OH

Home | Current Version | Previous Version | Text Only | Print | Product List | Glossary Off
Versions: 1 2 3 4 5 6 7 8 9 10 11 12 13 14 15 16 17 18 19 20 21 22 23 24 25 26 27 28 29 30 31 32 33 34 35 36 37 38 39 40 41 42 43 44 45 46 47 48 49 50

385
ASUS41 KCLE 312210
RWRCLE
OHIO REGIONAL WEATHER ROUNDUP
NATIONAL WEATHER SERVICE WILMINGTON, OH
600 PM EDT WED AUG 31 2016

NOTE: "FAIR" INDICATES FEW OR NO CLOUDS BELOW 12,000 FEET WITH NO
SIGNIFICANT WEATHER AND/OR OBSTRUCTIONS TO VISIBILITY.

OHZ001>008-015>018-024>027-034-035-043-044-312300-
   NORTHWEST OHIO

CITY           SKY/WX    TMP DP  RH WIND       PRES   REMARKS
DEFIANCE       CLOUDY    77  69  76 N7        29.96S
FINDLAY        FAIR      82  67  60 N10       29.93S
TOLEDO EXPRESS FAIR      79  68  69 N13       29.95S
TOLEDO EXEC    FAIR      79  68  69 N10       29.96S
LIMA           FAIR      78  69  73 N8        29.95S
$$

OHZ009>014-019>023-028>033-038-089-312300-
   NORTHEAST OHIO

CITY           SKY/WX    TMP DP  RH WIND       PRES   REMARKS
CLE-HOPKINS    CLOUDY    77  67  71 N15       29.96S
CLE-LAKEFRONT  PTSUNNY   77  69  76 N15       29.93R
CUY CO. ARPT   CLOUDY    77  72  83 N13       29.95S
LORAIN-ELYRIA  CLOUDY    76  68  76 N10       29.95S
ASHTABULA      PTSUNNY   74  71  91 N6        29.95R
AKRON-CANTON   CLOUDY    73  68  84 SE8       29.95S
WOOSTER        LGT RAIN  72  71  97 S7        29.95S
MANSFIELD      FAIR      78  69  73 NW5       29.95S
YOUNGSTOWN     CLOUDY    71  68  90 S6        29.95S
$$

OHZ042-051>053-060>062-070>072-077>081-312300-
  SOUTHWEST OHIO

CITY           SKY/WX    TMP DP  RH WIND       PRES   REMARKS
CINC-COVINGTON PTSUNNY   77  67  71 NW10      29.95S
CINC-LUNKEN    LGT RAIN  79  71  76 NW5       29.94R
HAMILTON       FAIR      79  70  74 CALM      29.95S
DAYTON         PTSUNNY   82  67  60 N12       29.96S
WRIGHT-PAT AFB PTSUNNY   78  74  85 VRB2      29.94S
DAYTON GENERAL PTSUNNY   73  69  87 CALM      29.95S
WILMINGTON     FAIR      77  71  82 NW7       29.95S
$$

OHZ036-037-039>041-045>050-054>059-063>069-073>076-082>088-312300-
  CENTRAL AND SOUTHEAST OHIO

CITY           SKY/WX    TMP DP  RH WIND       PRES   REMARKS
COLUMBUS       CLOUDY    75  69  81 CALM      29.93F
OSU AIRPORT    PTSUNNY   81  69  67 W5        29.93F
BOLTON FIELD   RAIN      75  72  88 W6        29.96R
RICKENBACK AFB PTSUNNY   76  72  85 CALM      29.93S
NEWARK         PTSUNNY   74  71  91 CALM      29.93F
MARION         FAIR      81  67  62 N9        29.95R
LANCASTER      LGT RAIN  75  72  90 N5        29.94R
ZANESVILLE     PTSUNNY   74  68  81 N8        29.94R
NEW PHILLY     LGT RAIN  74  70  87 SW3       29.95R FOG
$$




USA.gov is the U.S. government's official web portal to all federal, state and local government web resources and services.